User: anonymous   Login
Location: Ostrava
(49.8330°N, 18.2830°E)
Time: 12:18:50
(UTC+01:00)
Language:

NOAA 19 - Orbit

View from above orbital plane
View from above orbital plane
View from above satellite
View from above satellite

Ground track
Ground track

The orbit data is extracted from the following two-line orbital elements,

1 33591U 09005A   17057.52717413  .00000096  00000-0  77099-4 0  9996
2 33591  99.0786  22.8651 0013251 220.6983 139.3199 14.12156237415049
Epoch (UTC): 26 February 2017 12:39:07
Eccentricity: 0.0013251
inclination: 99.0786°
perigee height: 842 km
apogee height: 861 km
right ascension of ascending node: 22.8651°
argument of perigee: 220.6983°
revolutions per day: 14.12156237
mean anomaly at epoch: 139.3199°
orbit number at epoch: 41504

The dashed part of the orbit path shows where the satellite is in the earth's shadow,  

DLR